Location: Korczew
(51.3586°N, 19.4491°E)
Time: 07:52:55
(UTC+00:00)

NOSS 2-1 (D) - Pass Details

Date: 19 May 2025
Orbit: 378 x 1697 km, 63.3° (Epoch: 16 June)

Event Time Altitude Azimuth Distance (km) Brightness Sun altitude
Exits shadow 22:35:47 23° 260° (W) 935 4.4 -18.7°
Maximum altitude 22:37:23 42° 320° (NW) 572 3.7 -18.7°
Drops below altitude 10° 22:40:15 10° 35° (NE) 1,403 6.2 -18.7°
Sets 22:42:18 0° 42° (NE) 2,274 7.2 -18.7°
